[[{"header":{"parameterUnit":"m.s-1","parameterCategory":1,"la1":30.2991,"la2":30.254,"lo1":-89.0895,"lo2":-89.0444,"dy":0.0017,"dx":0.0017,"nx":28,"ny":28,"refTime":"2023-10-22T03:00:00:Z","depth":0,"parameterNumber":2,"parameterNumberName":"U-component_of_WINDS"},"data":[0,0,0,0,0,0,0,0,0,0,0,0,0,0,0,0,0,0,0,0,0,0,0,0,0,0,0,0,0,0,0,0,0,0,0,0,0,0,0,0,0,0,0,0,0,0,0,0,0,0,0,0,0,0,0,0,0,0,0.7157,0.7159,0,0.7291,0.7292,0.7294,0.7336,0.7335,0.7334,0.7334,0.7473,0.7477,0.7481,0,0,0,0,0,0,0,0,0,0,0,0,0,0.694,0.6944,0.7157,0.7159,0.716,0.729,0.7292,0.7294,0.7336,0.7335,0.7334,0.7333,0.7471,0.7476,0.7482,0,0,0,0,0,0,0,0,0,0,0,0,0,0.705,0.6945,0.7157,0.7197,0.7202,0.729,0.7292,0.7294,0.7336,0.7335,0.7334,0.7333,0.747,0.7476,0.7482,0.7541,0,0,0.7502,0.7505,0,0,0,0,0,0,0,0,0.7043,0.7058,0.7189,0.7194,0.72,0.7295,0.7267,0.7377,0.7336,0.7285,0.7334,0.7333,0.7415,0.7426,0.7453,0.7548,0.7554,0.7503,0.7506,0.7509,0.7511,0,0,0,0,0,0,0,0.7036,0.7052,0.721,0.7191,0.7198,0.7209,0.7223,0.7288,0.7354,0.7289,0.7293,0.7308,0.7417,0.7446,0.7456,0.7556,0.7502,0.7508,0.7512,0.7515,0.7705,0.7706,0,0,0,0,0,0,0.7021,0.7046,0.7206,0.7214,0.7118,0.7213,0.723,0.7266,0.7353,0.7365,0.7308,0.7309,0.7436,0.7449,0.7461,0.7535,0.7509,0.7515,0.7519,0.7703,0.7705,0.7706,0,0,0,0,0,0,0.7016,0.7035,0.72,0.7131,0.7153,0.7218,0.7258,0.7269,0.7298,0.7367,0.738,0.7326,0.7436,0.7452,0.7521,0.7541,0.7518,0.7524,0.7702,0.7704,0.7705,0.7684,0,0,0,0,0,0,0.701,0.7033,0.7056,0.7131,0.7156,0.7257,0.726,0.7272,0.7309,0.7311,0.7387,0.7399,0.7436,0.7511,0.7527,0.7549,0.7529,0.7701,0.7703,0.7705,0.7683,0.7685,0.7686,0,0,0,0,0,0.7002,0.7045,0.7057,0.7076,0.7186,0.7258,0.7272,0.7314,0.731,0.7334,0.7378,0.7396,0.7536,0.7517,0.7536,0.7561,0.7699,0.7702,0.7705,0.7683,0.7685,0.7686,0,0,0,0,0,0,0.6972,0.7056,0.707,0.7138,0.719,0.7265,0.7296,0.7315,0.737,0.737,0.742,0.7436,0.7501,0.7538,0.7516,0.7622,0.7618,0.7625,0.7595,0.7598,0.7599,0.7589,0.7534,0,0,0,0,0,0.6973,0.7024,0.7095,0.7148,0.7174,0.723,0.7263,0.729,0.7347,0.7369,0.7419,0.7474,0.753,0.7566,0.7621,0.7689,0.7706,0.7715,0.7716,0.7717,0.7722,0.776,0.7765,0.7715,0.7715,0.7715,0,0,0.6976,0.7028,0.7057,0.7143,0.7187,0.7239,0.7248,0.7303,0.7342,0.7378,0.7445,0.7483,0.7548,0.7615,0.7648,0.7648,0.774,0.772,0.7721,0.7726,0.7763,0.7768,0.7772,0.7717,0.7716,0.7716,0,0,0.7008,0.7053,0.7102,0.7145,0.7211,0.7248,0.7259,0.7331,0.7357,0.7425,0.7453,0.75,0.7596,0.7641,0.7676,0.7723,0.7742,0.774,0.7748,0.7784,0.7788,0.7792,0.7809,0.7814,0.7745,0.7745,0.7745,0,0.7004,0.7083,0.7125,0.7178,0.7215,0.7249,0.7299,0.7339,0.742,0.7445,0.7444,0.7564,0.761,0.7688,0.7699,0.7727,0.7742,0.7732,0.7784,0.7788,0.7792,0.7809,0.7815,0.7744,0.7744,0.7744,0.7744,0,0.7074,0.7128,0.716,0.7236,0.7277,0.7328,0.7378,0.7415,0.7438,0.7475,0.7543,0.7599,0.7666,0.7687,0.7711,0.7769,0.7767,0.7774,0.7772,0.7796,0.7812,0.7819,0.7743,0.7743,0.7744,0.7744,0,0,0.7091,0.7189,0.72,0.7235,0.7309,0.7352,0.7405,0.747,0.7499,0.7554,0.7599,0.7679,0.7686,0.7726,0.7755,0.7787,0.782,0.779,0.7793,0.7794,0.7886,0.788,0.7886,0.7833,0.7834,0.7835,0.7881,0,0.7133,0.7228,0.7267,0.7344,0.7394,0.7427,0.7473,0.7523,0.7559,0.7607,0.7648,0.7703,0.7708,0.7732,0.7765,0.7809,0.7839,0.7806,0.7876,0.7878,0.7858,0.7895,0.7889,0.7929,0.7887,0.7889,0.7889,0,0.7194,0.7248,0.7329,0.7397,0.7419,0.746,0.7522,0.7568,0.7626,0.765,0.7693,0.772,0.7777,0.7771,0.7849,0.7826,0.7857,0.7883,0.7885,0.7893,0.7885,0.7904,0.7943,0.7949,0.79,0.7899,0.7898,0,0.7198,0.7291,0.7351,0.738,0.746,0.7488,0.7523,0.758,0.7616,0.767,0.7694,0.7755,0.7788,0.7834,0.7877,0.7868,0.7951,0.7949,0.7973,0.7972,0.7989,0.7988,0.8033,0.8009,0.8009,0.8009,0.8009,0,0.724,0.7288,0.7354,0.7391,0.7446,0.7491,0.7545,0.7582,0.7632,0.7677,0.7709,0.7751,0.7805,0.7854,0.7888,0.7948,0.7963,0.7984,0.7992,0.7981,0.7978,0.8002,0.8,0.801,0.801,0.801,0.8009,0,0.7254,0.7299,0.7368,0.7438,0.7456,0.7494,0.7554,0.7592,0.7629,0.7685,0.7701,0.776,0.7819,0.7866,0.7943,0.7966,0.8028,0.8038,0.8008,0.8013,0.8034,0.8031,0.8097,0.8108,0.8076,0.8076,0.8076,0,0.7277,0.7315,0.7389,0.7421,0.7456,0.7507,0.7544,0.7589,0.7626,0.7695,0.7724,0.7785,0.7836,0.7929,0.7978,0.8037,0.8048,0.8067,0.8058,0.8045,0.8048,0.8045,0.8049,0.8068,0.8068,0.8068,0.8069,0,0.7314,0.7335,0.7386,0.7445,0.7488,0.7537,0.7587,0.7611,0.7666,0.7705,0.7765,0.7805,0.7883,0.7943,0.8007,0.8044,0.8065,0.8071,0.808,0.8069,0.805,0.806,0.8011,0.807,0.8069,0.8069,0.8069,0.8069,0.7334,0.7369,0.7426,0.7482,0.7524,0.7569,0.7608,0.7649,0.77,0.7766,0.779,0.7852,0.7909,0.7997,0.8033,0.8082,0.8084,0.8097,0.81,0.8102,0.8101,0.8042,0.8094,0.8094,0.8094,0.8094,0.8094,0,0.7372,0.7411,0.7462,0.7529,0.7573,0.7589,0.7644,0.768,0.7734,0.7784,0.7834,0.7902,0.7961,0.8014,0.8075,0.8104,0.8115,0.8118,0.8117,0.8124,0.8096,0.8082,0.8108,0.8108,0.8108,0.8108,0.8108,0.8108,0.7398,0.7457,0.7484,0.7565,0.7603,0.7663,0.7694,0.7736,0.7776,0.7851,0.7899,0.7934,0.7986,0.805,0.8104,0.8118,0.8139,0.814,0.8156,0.8129,0.8127,0.8125,0.8112,0.8144,0.8144,0.8181,0.8181,0.8182]},{"header":{"parameterUnit":"m.s-1","parameterCategory":1,"la1":30.2991,"la2":30.254,"lo1":-89.0895,"lo2":-89.0444,"dy":0.0017,"dx":0.0017,"nx":28,"ny":28,"refTime":"2023-10-22T03:00:00:Z","depth":0,"parameterNumber":3,"parameterNumberName":"V-component_of_WINDS"},"data":[0,0,0,0,0,0,0,0,0,0,0,0,0,0,0,0,0,0,0,0,0,0,0,0,0,0,0,0,0,0,0,0,0,0,0,0,0,0,0,0,0,0,0,0,0,0,0,0,0,0,0,0,0,0,0,0,0,0,2.6703,2.6702,0,2.6627,2.6626,2.6625,2.6631,2.6632,2.6634,2.6635,2.6548,2.6544,2.6541,0,0,0,0,0,0,0,0,0,0,0,0,0,2.6845,2.6842,2.6703,2.6702,2.6701,2.6627,2.6626,2.6625,2.6631,2.6633,2.6634,2.6635,2.6549,2.6545,2.6541,0,0,0,0,0,0,0,0,0,0,0,0,0,2.6777,2.6841,2.6703,2.6695,2.6694,2.6627,2.6626,2.6624,2.6631,2.6633,2.6634,2.6636,2.655,2.6545,2.654,2.6473,0,0,2.6524,2.6522,0,0,0,0,0,0,0,0,2.6781,2.6772,2.6697,2.6696,2.6694,2.6641,2.6644,2.6573,2.663,2.6654,2.6635,2.6637,2.6576,2.6569,2.6551,2.6469,2.6465,2.6524,2.6521,2.6519,2.6517,0,0,0,0,0,0,0,2.6786,2.6775,2.6672,2.6696,2.6694,2.6693,2.6685,2.6631,2.6606,2.6652,2.6653,2.6644,2.6576,2.6556,2.6549,2.6464,2.6524,2.652,2.6516,2.6514,2.6323,2.6321,0,0,0,0,0,0,2.6793,2.6779,2.6675,2.667,2.6743,2.6689,2.668,2.6656,2.6607,2.6601,2.6643,2.6645,2.6564,2.6555,2.6546,2.6464,2.6519,2.6514,2.6511,2.6325,2.6322,2.632,0,0,0,0,0,0,2.6796,2.6784,2.6678,2.6725,2.6711,2.6685,2.6657,2.6653,2.6633,2.66,2.6594,2.6627,2.6565,2.6553,2.6492,2.6461,2.6512,2.6507,2.6327,2.6324,2.6321,2.63,0,0,0,0,0,0,2.68,2.6785,2.6761,2.6724,2.6709,2.6627,2.6655,2.665,2.6626,2.6628,2.6584,2.6578,2.6565,2.6499,2.6487,2.6455,2.6503,2.633,2.6326,2.6322,2.6304,2.6297,2.6291,0,0,0,0,0,2.6805,2.6756,2.676,2.6747,2.6679,2.6626,2.6616,2.6605,2.6623,2.6598,2.6576,2.6579,2.6467,2.6493,2.6479,2.6445,2.6332,2.6327,2.6323,2.6306,2.6298,2.6292,0,0,0,0,0,0,2.6786,2.6751,2.6755,2.6693,2.6663,2.6627,2.6594,2.6597,2.6559,2.6562,2.6547,2.6537,2.6475,2.6454,2.6484,2.6378,2.6401,2.6394,2.6394,2.6386,2.638,2.6386,2.6499,0,0,0,0,0,2.6776,2.6739,2.6708,2.6656,2.6641,2.6621,2.6597,2.6592,2.6558,2.6544,2.6518,2.6484,2.644,2.6412,2.637,2.6301,2.6291,2.6271,2.6265,2.626,2.6253,2.6214,2.6205,2.6305,2.6306,2.6306,0,0,2.6751,2.6728,2.6704,2.6652,2.6628,2.6587,2.6609,2.6565,2.6534,2.6537,2.6478,2.6458,2.6418,2.6353,2.6322,2.6333,2.6223,2.6254,2.625,2.6246,2.6209,2.6199,2.6191,2.6302,2.6303,2.6303,0,0,2.6687,2.6666,2.6621,2.6597,2.6562,2.6549,2.6538,2.6502,2.649,2.6432,2.6433,2.6394,2.632,2.6292,2.6268,2.6195,2.6196,2.6181,2.6148,2.6111,2.6103,2.6096,2.6069,2.606,2.6175,2.6175,2.6175,0,2.6661,2.6603,2.6596,2.6552,2.6529,2.6533,2.6485,2.6462,2.6413,2.6395,2.6409,2.6317,2.629,2.6219,2.6201,2.6182,2.6167,2.6186,2.6106,2.6098,2.6091,2.6066,2.6056,2.6173,2.6173,2.6173,2.6174,0,2.6572,2.6531,2.6498,2.6456,2.6428,2.6382,2.6367,2.6339,2.6336,2.6321,2.6261,2.623,2.6182,2.6164,2.6159,2.6092,2.61,2.611,2.6133,2.6081,2.6056,2.6046,2.6171,2.6171,2.6172,2.6172,0,0,2.6491,2.6448,2.6436,2.6417,2.6379,2.6346,2.63,2.6257,2.6233,2.6199,2.6159,2.6098,2.6108,2.608,2.6072,2.604,2.5983,2.6053,2.6052,2.6041,2.5906,2.5898,2.5887,2.5985,2.5983,2.5981,2.5909,0,2.6423,2.6346,2.6339,2.6268,2.623,2.6234,2.6194,2.6165,2.6149,2.6112,2.6094,2.6051,2.6067,2.6051,2.6019,2.5997,2.5956,2.6002,2.5945,2.5943,2.5954,2.5874,2.5866,2.58,2.5899,2.5898,2.5897,0,2.6333,2.6301,2.6227,2.6196,2.6179,2.6144,2.6104,2.607,2.6036,2.6027,2.5998,2.5995,2.5945,2.5972,2.5902,2.5934,2.591,2.5896,2.5893,2.5886,2.5916,2.5865,2.5778,2.5768,2.5882,2.5883,2.5884,0,2.6281,2.6219,2.6168,2.6151,2.6113,2.6088,2.607,2.6039,2.6014,2.5978,2.5961,2.5919,2.5895,2.5862,2.5846,2.5867,2.5777,2.5802,2.5767,2.5767,2.5747,2.5748,2.5654,2.5732,2.5733,2.5733,2.5733,0,2.6205,2.616,2.6144,2.6112,2.6061,2.6053,2.6001,2.5984,2.5957,2.592,2.592,2.5884,2.5867,2.5828,2.5815,2.5759,2.5748,2.5738,2.5735,2.5738,2.5739,2.5721,2.5725,2.573,2.5731,2.5731,2.5732,0,2.6139,2.6127,2.6071,2.6041,2.6032,2.5995,2.5968,2.5936,2.5922,2.5875,2.5863,2.584,2.5795,2.5777,2.572,2.5712,2.5647,2.5648,2.5659,2.5658,2.5624,2.5627,2.5514,2.5499,2.5588,2.5587,2.5586,0,2.6091,2.6056,2.6024,2.6001,2.5984,2.5946,2.5921,2.5911,2.5885,2.5846,2.5818,2.5773,2.5737,2.5664,2.564,2.5597,2.5596,2.556,2.5589,2.5593,2.5595,2.5597,2.5593,2.5554,2.5553,2.5552,2.5551,0,2.6006,2.6003,2.5969,2.5933,2.5905,2.5875,2.5846,2.5826,2.5812,2.5782,2.5738,2.571,2.5654,2.5609,2.5565,2.5544,2.5544,2.5543,2.5532,2.5534,2.5542,2.5537,2.5644,2.5545,2.5546,2.5546,2.5546,2.5547,2.5947,2.5917,2.5891,2.5853,2.5831,2.5804,2.5773,2.5757,2.5721,2.5677,2.5672,2.5624,2.5591,2.5533,2.551,2.5471,2.548,2.5464,2.546,2.5457,2.5454,2.555,2.5462,2.5462,2.5463,2.5463,2.5463,0,2.5863,2.5847,2.5812,2.5774,2.5744,2.5751,2.572,2.5693,2.5652,2.5623,2.5589,2.5538,2.5495,2.5469,2.5425,2.5398,2.5397,2.5387,2.5388,2.5383,2.5449,2.5462,2.5389,2.5389,2.5389,2.5389,2.5389,2.5389,2.5816,2.5766,2.5759,2.5698,2.5681,2.5637,2.5618,2.5593,2.557,2.5514,2.548,2.5464,2.5436,2.5391,2.5351,2.5344,2.5327,2.5316,2.531,2.5371,2.5379,2.5386,2.5399,2.5313,2.5313,2.5248,2.5248,2.5247]}]]